This is the latest recevied weather packets stored in our database for station/object CT2HRB-13. If no packets are shown the sender has not sent any weather packets the latest 10 day(s).
| Time | Temp. | Humidity | Pressure | Rain* | Wind** | Luminosity | Snow |
|---|---|---|---|---|---|---|---|
| 1778229601 | 16.11° C | 65% | 1009.6 hPa | - | - | - | - |
| 1778229301 | 16.11° C | 64% | 1009.5 hPa | - | - | - | - |
| 1778229002 | 16.67° C | 65% | 1009.5 hPa | - | - | - | - |
| 1778228702 | 16.11° C | 66% | 1009.5 hPa | - | - | - | - |
| 1778228401 | 16.11° C | 67% | 1009.6 hPa | - | - | - | - |
| 1778228101 | 15.56° C | 67% | 1009.4 hPa | - | - | - | - |
| 1778227801 | 15.56° C | 67% | 1009.4 hPa | - | - | - | - |
| 1778227501 | 15.56° C | 68% | 1009.3 hPa | - | - | - | - |
| 1778227201 | 15.56° C | 68% | 1009.5 hPa | - | - | - | - |
| 1778226901 | 15.56° C | 69% | 1009.4 hPa | - | - | - | - |
| 1778226601 | 15.56° C | 70% | 1009.6 hPa | - | - | - | - |
| 1778226301 | 15° C | 70% | 1009.3 hPa | - | - | - | - |
| 1778226002 | 15° C | 70% | 1009.4 hPa | - | - | - | - |
| 1778225701 | 15.56° C | 69% | 1009.4 hPa | - | - | - | - |
| 1778225401 | 15.56° C | 68% | 1009.4 hPa | - | - | - | - |
| 1778225102 | 15.56° C | 69% | 1009.4 hPa | - | - | - | - |
| 1778224801 | 15.56° C | 71% | 1009.5 hPa | - | - | - | - |
| 1778224502 | 14.44° C | 72% | 1009.4 hPa | - | - | - | - |
| 1778224201 | 14.44° C | 72% | 1009.3 hPa | - | - | - | - |
| 1778223901 | 14.44° C | 72% | 1009.3 hPa | - | - | - | - |
| 1778223602 | 14.44° C | 75% | 1009.2 hPa | - | - | - | - |
| 1778223302 | 13.89° C | 75% | 1009.1 hPa | - | - | - | - |
| 1778223002 | 13.89° C | 77% | 1009.2 hPa | - | - | - | - |
| 1778222702 | 13.89° C | 77% | 1009.3 hPa | - | - | - | - |
| 1778222401 | 13.89° C | 77% | 1009.3 hPa | - | - | - | - |
* Rain since midnight (hover to see other rain measurements)
** Current wind speed in m/s (hover to see current wind gust speed)